Regional Weather Roundup
Issued by NWS

Home | Current Version | Previous Version | Text Only | Print | Product List | Glossary Off
Versions: 1 2 3 4 5 6 7 8 9 10 11 12 13 14 15 16 17 18 19 20 21 22 23 24 25 26 27 28 29 30 31 32 33 34 35 36 37 38 39 40 41 42 43 44 45 46 47 48 49 50

000
ASUS43 KMKX 181821
RWRWI

WISCONSIN REGIONAL WEATHER ROUNDUP
NATIONAL WEATHER SERVICE MILWAUKEE/SULLIVAN WI
100 PM CDT WED OCT 18 2017

NOTE: "FAIR" INDICATES FEW OR NO CLOUDS BELOW 12,000 FEET WITH NO
SIGNIFICANT WEATHER AND/OR OBSTRUCTIONS TO VISIBILITY.

WIZ001-002-006>008-014>016-023>028-181900-
NORTHWEST WISCONSIN

CITY           SKY/WX    TMP DP  RH WIND       PRES   REMARKS
SUPERIOR ARPT  PTSUNNY   65  45  48 SW16G22   29.70F
6HR MIN TEMP:  47; 6HR MAX TEMP:  66;

ASHLAND        MOSUNNY   70  46  42 S18G26    29.68F
6HR MIN TEMP:  48; 6HR MAX TEMP:  70;

HAYWARD        MOSUNNY   66  45  46 SW17      29.75F
6HR MIN TEMP:  50; 6HR MAX TEMP:  67;

SIREN          MOSUNNY   64  45  51 SW16      29.79R
6HR MIN TEMP:  51; 6HR MAX TEMP:  66;

CUMBERLAND     SUNNY     64  45  48 SW20      29.79F
RICE LAKE      SUNNY     67  47  48 S15G21    29.82S
6HR MIN TEMP:  45; 6HR MAX TEMP:  67;

CHETEK         SUNNY     67  50  54 SW8G20    29.80F
6HR MIN TEMP:  45; 6HR MAX TEMP:  67; 6HR PCP:  0.06;

LADYSMITH      CLOUDY    67  48  50 S15G23    29.82F
6HR MIN TEMP:  49; 6HR MAX TEMP:  67; 6HR PCP:  0.03;

EAU CLAIRE     SUNNY     69  48  47 S12       29.83S
6HR MIN TEMP:  50; 6HR MAX TEMP:  69;

MENOMONIE      SUNNY     68  49  49 S13       29.82S
6HR MIN TEMP:  45; 6HR MAX TEMP:  68;

NEW RICHMOND   PTSUNNY   66  46  48 SW15G21   29.81F
6HR MIN TEMP:  49; 6HR MAX TEMP:  66;

OSCEOLA        PTSUNNY   66  48  53 W13       29.84S
6HR MIN TEMP:  49; 6HR MAX TEMP:  66;

$$

WIZ003>005-009-010-017-018-181900-
NORTH CENTRAL WISCONSIN

CITY           SKY/WX    TMP DP  RH WIND       PRES   REMARKS
MANITOWISH WTR CLOUDY    68  45  44 SW18G25   29.77F
6HR MIN TEMP:  44; 6HR MAX TEMP:  68;

ARBOR VITAE    SUNNY     68  48  47 SW20G26   29.79F
6HR MIN TEMP:  49; 6HR MAX TEMP:  69;

WOODRUFF       SUNNY     68  48  47 SW20G26   29.79F
6HR MIN TEMP:  49; 6HR MAX TEMP:  69;

RHINELANDER    SUNNY     67  48  50 S18G29    29.82F
6HR MIN TEMP:  49; 6HR MAX TEMP:  67;

EAGLE RIVER    SUNNY     67  43  41 SW14G23   29.80F
6HR MIN TEMP:  46; 6HR MAX TEMP:  67;

LAND O LAKES   SUNNY     68  43  40 S9G21     29.80F
6HR MIN TEMP:  46; 6HR MAX TEMP:  68;

PHILLIPS       CLOUDY    67  46  47 S17G23    29.79F
6HR MIN TEMP:  47; 6HR MAX TEMP:  68;

TOMAHAWK       SUNNY     67  47  47 S7        29.82F
6HR MIN TEMP:  40; 6HR MAX TEMP:  67;

MEDFORD        SUNNY     65  47  52 S17G29    29.85F
6HR MIN TEMP:  43; 6HR MAX TEMP:  65;

MERRILL        SUNNY     68  48  49 SW15G21   29.85F
6HR MIN TEMP:  47; 6HR MAX TEMP:  68;

$$

WIZ029-030-035-036-043>047-181900-
CENTRAL WISCONSIN

CITY           SKY/WX    TMP DP  RH WIND       PRES   REMARKS
WAUSAU         LGT RAIN  66  47  50 S16G26    29.85F
6HR MIN TEMP:  46; 6HR MAX TEMP:  66; 6HR PCP: TRACE;

MOSINEE        MOSUNNY   64  48  55 S15G25    29.89F
MARSHFIELD     SUNNY     68  46  45 SW16G25   29.86F
6HR MIN TEMP:  45; 6HR MAX TEMP:  68;

STEVENS POINT  SUNNY     67  46  47 SW16      29.90F
6HR MIN TEMP:  46; 6HR MAX TEMP:  67;

WAUPACA        SUNNY     71  47  43 S13G21    29.92F
6HR MIN TEMP:  47; 6HR MAX TEMP:  71;

WAUTOMA        SUNNY     69  47  45 S17G25    29.93F
6HR MIN TEMP:  37; 6HR MAX TEMP:  69;

WISC RAPIDS    SUNNY     67  48  50 SW16G25   29.91F
6HR MIN TEMP:  49; 6HR MAX TEMP:  68;

CAMP DOUGLAS   MOSUNNY   70  48  46 S15G21    29.90F
$$

WIZ011>013-019>022-031-037>040-048>050-181900-
NORTHEAST WISCONSIN

CITY           SKY/WX    TMP DP  RH WIND       PRES   REMARKS
ANTIGO         SUNNY     65  48  53 SW20      29.87F
6HR MIN TEMP:  43; 6HR MAX TEMP:  65;

SHAWANO        SUNNY     70  47  44 S8        29.89F
6HR MIN TEMP:  49; 6HR MAX TEMP:  70;

OCONTO         SUNNY     68  47  48 S13G20    29.90F
6HR MIN TEMP:  44; 6HR MAX TEMP:  68;

STURGEON BAY   SUNNY     65  50  58 S18       29.92F
6HR MIN TEMP:  50; 6HR MAX TEMP:  68;

GREEN BAY      SUNNY     66  50  56 S16G23    29.93F
6HR MIN TEMP:  50; 6HR MAX TEMP:  66;

MANITOWOC      SUNNY     63  50  62 S20       29.96F
6HR MIN TEMP:  48; 6HR MAX TEMP:  65;

APPLETON       SUNNY     66  43  42 S20       29.93
CLINTONVILLE   SUNNY     70  45  40 SW21G30   29.90F
OSHKOSH        SUNNY     68  49  50 S20G25    29.95F
6HR MIN TEMP:  49; 6HR MAX TEMP:  68;

$$

WIZ032>034-041-042-053>061-181900-
SOUTHWEST WISCONSIN

CITY           SKY/WX    TMP DP  RH WIND       PRES   REMARKS
LA CROSSE      SUNNY     69  49  48 S20       29.87F
6HR MIN TEMP:  54; 6HR MAX TEMP:  69;

SPARTA         SUNNY     69  49  48 S9        29.90F
6HR MIN TEMP:  51; 6HR MAX TEMP:  69;

VIROQUA        SUNNY     68  49  50 S13       29.93F
6HR MIN TEMP:  48; 6HR MAX TEMP:  68;

BOSCOBEL       SUNNY     71  47  42 S12G20    29.95F
6HR MIN TEMP:  40; 6HR MAX TEMP:  72;

PRAIRIE DU CHI SUNNY     70  44  39 S9        29.94F
6HR MIN TEMP:  51; 6HR MAX TEMP:  70;

PLATTEVILLE    SUNNY     68  49  49 S18       30.00F
6HR MIN TEMP:  48; 6HR MAX TEMP:  68;

$$

WIZ056-057-062-063-064-067-068-181900-
SOUTH CENTRAL WISCONSIN

CITY           SKY/WX    TMP DP  RH WIND       PRES   REMARKS
REEDSBURG      SUNNY     69  48  47 S16G26    29.94F
6HR MIN TEMP:  49; 6HR MAX TEMP:  69;

BARABOO/DELLS  SUNNY     67  46  46 SW18      29.95F
6HR MIN TEMP:  47; 6HR MAX TEMP:  67;

LONE ROCK      SUNNY     69  49  48 S13G23    29.96F
6HR MIN TEMP:  43; 6HR MAX TEMP:  69;

MINERAL POINT  SUNNY     68  48  49 S10       29.99F
MADISON        SUNNY     67  47  48 S15G23    29.99F
6HR MIN TEMP:  48; 6HR MAX TEMP:  67;

MIDDLETON      SUNNY     69  46  43 SW16G23   29.99F
6HR MIN TEMP:  48; 6HR MAX TEMP:  69;

WATERTOWN      SUNNY     68  47  46 S17G26    30.00F
6HR MIN TEMP:  46; 6HR MAX TEMP:  68;

MONROE         SUNNY     68  43  40 S21G29    30.01F
JANESVILLE     SUNNY     72  45  37 SW21G26   30.03F
$$

WIZ051-052-058>065-066-070>072-181900-
SOUTHEAST WISCONSIN

CITY           SKY/WX    TMP DP  RH WIND       PRES   REMARKS
MILWAUKEE      SUNNY     70  45  40 S17G28    30.04F
6HR MIN TEMP:  50; 6HR MAX TEMP:  70;

WAUKESHA       SUNNY     66  43  42 SW13G23   30.03F
MILWAUKEE/TIMM SUNNY     70  39  32 SW20      30.03F
RACINE         SUNNY     70  44  39 S13G24    30.06F
6HR MIN TEMP:  50; 6HR MAX TEMP:  70;

BURLINGTON     SUNNY     70  47  42 S17G24    30.04F
6HR MIN TEMP:  45; 6HR MAX TEMP:  70;

KENOSHA        SUNNY     69  43  38 S17G25    30.06F
6HR MIN TEMP:  49; 6HR MAX TEMP:  69;

FOND DU LAC    SUNNY     69  44  40 SW17G24   29.96F
6HR MIN TEMP:  52; 6HR MAX TEMP:  69;

SHEBOYGAN      SUNNY     71  48  43 SW23G31   29.98F
6HR MIN TEMP:  45; 6HR MAX TEMP:  71;

WEST BEND      SUNNY     68  43  40 SW16G24   29.99F
JUNEAU         SUNNY     67  46  48 S18G26    30.01F
6HR MIN TEMP:  47; 6HR MAX TEMP:  67;

$$

LSZ147-162-181900-
LAKE SUPERIOR

STATION/POSITION TIME  TEMP    WIND        PRES    WAVE
                       AIR SEA DIR/SP/G            HT/PER
                 (UTC) (F)     (DEG/KT/KT) (MB)    (FT/S)
W MID LAKE BUOY  1750   58 53              1003.0F   3/ 5
DEVILS ISLAND    1800   58     230/ 18/ 20 1004.1F
PORT WING        1636          210/ 16/ 26 1005.8
SAXON HARBOR     1740   71     210/ 15/ 24 1004.7F
$$

LMZ867-665-643>646-181900-
LAKE MICHIGAN

STATION/POSITION TIME  TEMP    WIND        PRES    WAVE
                       AIR SEA


USA.gov is the U.S. government's official web portal to all federal, state and local government web resources and services.